K5RWS Weather Reports


Display with metric or nautical units.
time (UTC)temp
F
wind
direction
speed
MPH
gust
MPH
rain 1hr
in
rain 24hr
in
rain mn
in
humidity
%
barometer
mb
20260508054255 56 222 0.0 0.0 0.00 0.00 0.00 19 1018.7
20260508053751 55 216 0.0 0.0 0.00 0.00 0.00 19 1018.8
20260508053249 55 210 0.0 0.0 0.00 0.00 0.00 19 1018.8
20260508052746 55 158 0.0 2.0 0.00 0.00 0.00 19 1018.8
20260508052243 56 182 0.0 0.0 0.00 0.00 0.00 18 1018.4
20260508051739 55 217 0.0 0.0 0.00 0.00 0.00 19 1018.6
20260508051234 54 167 0.0 0.0 0.00 0.00 0.00 20 1018.4
20260508050731 53 147 0.0 0.0 0.00 0.00 0.00 20 1018.4
20260508050229 54 186 0.0 0.0 0.00 0.00 0.00 20 1018.4
20260508045724 54 187 0.0 0.0 0.00 0.00 0.00 19 1018.4
20260508045222 55 211 0.0 0.0 0.00 0.00 0.00 19 1018.4
20260508044719 55 238 0.0 1.0 0.00 0.00 0.00 18 1018.4
20260508044216 56 237 0.0 0.0 0.00 0.00 0.00 18 1018.3
20260508043711 57 269 0.0 1.0 0.00 0.00 0.00 17 1018.3
20260508043210 58 257 2.0 3.0 0.00 0.00 0.00 17 1018.6
20260508042706 58 244 0.0 3.0 0.00 0.00 0.00 16 1018.4
20260508042203 59 275 1.0 3.0 0.00 0.00 0.00 16 1018.4
20260508041659 59 261 3.0 4.0 0.00 0.00 0.00 16 1018.3
20260508041156 58 278 2.0 7.0 0.00 0.00 0.00 16 1018.3
20260508040653 58 256 2.0 6.0 0.00 0.00 0.00 15 1018.6
20260508040150 59 278 5.0 7.0 0.00 0.00 0.00 15 1018.4
20260508035647 59 277 4.0 7.0 0.00 0.00 0.00 14 1018.2
20260508035145 60 260 1.0 6.0 0.00 0.00 0.00 14 1018.6
20260508034641 60 271 2.0 7.0 0.00 0.00 0.00 14 1018.2
20260508034139 60 291 4.0 6.0 0.00 0.00 0.00 14 1018.1
20260508033636 60 295 6.0 8.0 0.00 0.00 0.00 13 1018.2
20260508033134 59 287 5.0 7.0 0.00 0.00 0.00 13 1017.9
20260508032630 59 287 4.0 7.0 0.00 0.00 0.00 13 1018.1
20260508032128 59 275 3.0 7.0 0.00 0.00 0.00 13 1018.0
20260508031625 60 290 4.0 7.0 0.00 0.00 0.00 12 1017.7
20260508031121 60 297 3.0 7.0 0.00 0.00 0.00 12 1017.9
20260508030617 60 269 5.0 7.0 0.00 0.00 0.00 12 1017.7
20260508030115 61 280 4.0 8.0 0.00 0.00 0.00 12 1017.6
20260508025611 61 281 5.0 6.0 0.00 0.00 0.00 12 1017.6
20260508025108 61 280 3.0 4.0 0.00 0.00 0.00 12 1017.4
20260508024604 62 276 3.0 4.0 0.00 0.00 0.00 11 1017.2
20260508024102 63 284 4.0 4.0 0.00 0.00 0.00 11 1017.4
20260508023558 63 277 2.0 2.0 0.00 0.00 0.00 11 1017.3
20260508023055 64 284 2.0 3.0 0.00 0.00 0.00 10 1017.2
20260508022551 64 284 2.0 3.0 0.00 0.00 0.00 10 1016.9
20260508022049 65 293 2.0 4.0 0.00 0.00 0.00 10 1017.2
20260508021544 66 293 2.0 6.0 0.00 0.00 0.00 10 1017.0
20260508021040 66 275 4.0 4.0 0.00 0.00 0.00 10 1017.2
20260508020538 67 279 4.0 6.0 0.00 0.00 0.00 9 1016.8
20260508020036 68 284 4.0 4.0 0.00 0.00 0.00 9 1016.8
20260508015533 69 276 2.0 4.0 0.00 0.00 0.00 9 1016.8
20260508015030 70 296 4.0 4.0 0.00 0.00 0.00 9 1016.8
20260508014526 71 288 2.0 4.0 0.00 0.00 0.00 8 1016.7
20260508014022 72 276 2.0 4.0 0.00 0.00 0.00 8 1016.7
20260508013518 72 282 2.0 7.0 0.00 0.00 0.00 8 1016.4
20260508013016 73 296 4.0 7.0 0.00 0.00 0.00 8 1016.4
20260508012513 73 285 5.0 9.0 0.00 0.00 0.00 8 1016.6
20260508012010 73 283 4.0 8.0 0.00 0.00 0.00 7 1016.4
20260508011508 74 279 5.0 10.0 0.00 0.00 0.00 7 1016.2
20260508011005 74 288 6.0 9.0 0.00 0.00 0.00 7 1016.2
20260508010457 74 283 5.0 9.0 0.00 0.00 0.00 7 1016.1
20260508005954 75 278 5.0 14.0 0.00 0.00 0.00 7 1016.4
20260508005450 75 286 6.0 13.0 0.00 0.00 0.00 7 1016.4
20260508004947 75 271 2.0 3.0 0.00 0.00 0.00 7 1016.2
20260508004443 76 253 5.0 9.0 0.00 0.00 0.00 7 1016.3
20260508003939 76 200 0.0 3.0 0.00 0.00 0.00 10 1016.2
20260508003436 75 240 1.0 1.0 0.00 0.00 0.00 10 1016.0
20260508002933 75 244 1.0 6.0 0.00 0.00 0.00 11 1016.2
20260508002430 75 200 0.0 3.0 0.00 0.00 0.00 9 1016.3
20260508001926 75 220 3.0 13.0 0.00 0.00 0.00 11 1016.2
20260508001423 75 231 2.0 6.0 0.00 0.00 0.00 11 1016.0
20260508000919 75 209 3.0 8.0 0.00 0.00 0.00 11 1016.0
20260508000415 75 198 1.0 2.0 0.00 0.00 0.00 11 1016.0
20260507235912 75 180 0.0 6.0 0.00 0.00 0.00 11 1016.3
20260507235409 75 149 1.0 7.0 0.00 0.00 0.00 11 1016.3
20260507234906 75 133 0.0 6.0 0.00 0.00 0.00 11 1016.2
20260507234403 75 212 3.0 8.0 0.00 0.00 0.00 11 1016.3
20260507233859 76 249 4.0 9.0 0.00 0.00 0.00 10 1016.2
20260507233357 76 236 4.0 7.0 0.00 0.00 0.00 9 1016.2
20260507232855 75 147 0.0 2.0 0.00 0.00 0.00 11 1016.2
20260507232351 76 237 3.0 8.0 0.00 0.00 0.00 11 1016.3
20260507231849 76 203 1.0 7.0 0.00 0.00 0.00 11 1016.2
20260507231345 76 210 6.0 10.0 0.00 0.00 0.00 9 1016.3
20260507230841 77 257 5.0 10.0 0.00 0.00 0.00 9 1016.6
20260507230339 77 206 3.0 11.0 0.00 0.00 0.00 9 1016.6
20260507225838 76 240 5.0 7.0 0.00 0.00 0.00 8 1016.6
20260507225335 75 210 0.0 9.0 0.00 0.00 0.00 11 1016.4
20260507224831 75 199 5.0 10.0 0.00 0.00 0.00 11 1016.7
20260507224328 76 139 0.0 10.0 0.00 0.00 0.00 11 1016.7
20260507223824 75 199 5.0 7.0 0.00 0.00 0.00 12 1016.8
20260507223320 76 168 3.0 9.0 0.00 0.00 0.00 10 1016.9
20260507222818 76 149 3.0 11.0 0.00 0.00 0.00 11 1016.8
20260507222314 75 203 0.0 1.0 0.00 0.00 0.00 12 1016.8
20260507221811 73 37 3.0 4.0 0.00 0.00 0.00 13 1017.0
20260507221307 74 141 13.0 15.0 0.00 0.00 0.00 13 1017.0
20260507220803 75 59 0.0 10.0 0.00 0.00 0.00 13 1017.2
20260507220302 75 3 13.0 23.0 0.00 0.00 0.00 13 1016.9
20260507215758 74 222 2.0 9.0 0.00 0.00 0.00 13 1017.4
20260507215255 74 189 2.0 8.0 0.00 0.00 0.00 11 1017.6
20260507214752 75 188 3.0 10.0 0.00 0.00 0.00 14 1017.6
20260507214249 75 260 4.0 9.0 0.00 0.00 0.00 13 1017.7
20260507213744 76 210 5.0 8.0 0.00 0.00 0.00 11 1017.6
20260507213242 74 255 1.0 8.0 0.00 0.00 0.00 11 1018.0
20260507212738 73 146 4.0 8.0 0.00 0.00 0.00 15 1018.0
20260507212235 73 185 0.0 6.0 0.00 0.00 0.00 15 1018.2
20260507211732 73 197 5.0 10.0 0.00 0.00 0.00 14 1018.2
20260507211228 75 165 3.0 10.0 0.00 0.00 0.00 13 1018.2
20260507210725 73 183 0.0 1.0 0.00 0.00 0.00 13 1018.3
20260507210222 73 295 5.0 7.0 0.00 0.00 0.00 13 1018.4
20260507205718 72 210 5.0 9.0 0.00 0.00 0.00 12 1018.6
20260507205215 73 230 2.0 4.0 0.00 0.00 0.00 13 1018.9
20260507204711 72 204 1.0 6.0 0.00 0.00 0.00 14 1018.8
20260507204209 72 221 3.0 8.0 0.00 0.00 0.00 14 1018.8
20260507203707 72 159 6.0 11.0 0.00 0.00 0.00 14 1018.8
20260507203204 72 179 6.0 11.0 0.00 0.00 0.00 15 1019.1
20260507202659 72 55 2.0 11.0 0.00 0.00 0.00 15 1019.1
20260507202155 71 71 0.0 2.0 0.00 0.00 0.00 15 1019.4
20260507201650 71 214 0.0 8.0 0.00 0.00 0.00 15 1019.4
20260507201148 70 172 1.0 9.0 0.00 0.00 0.00 17 1019.4
20260507200644 70 219 4.0 9.0 0.00 0.00 0.00 17 1019.6
20260507200140 70 267 6.0 7.0 0.00 0.00 0.00 15 1019.6
20260507195637 71 212 5.0 9.0 0.00 0.00 0.00 16 1019.8
20260507195134 70 238 1.0 6.0 0.00 0.00 0.00 16 1020.0
20260507194631 69 220 1.0 8.0 0.00 0.00 0.00 14 1020.0
20260507194126 68 359 1.0 2.0 0.00 0.00 0.00 18 1020.2
20260507193624 69 218 0.0 4.0 0.00 0.00 0.00 19 1020.2
20260507193121 66 110 1.0 6.0 0.00 0.00 0.00 21 1020.2
20260507192617 68 132 1.0 4.0 0.00 0.00 0.00 22 1020.4
20260507192114 69 180 0.0 6.0 0.00 0.00 0.00 20 1020.3
20260507191610 69 163 0.0 0.0 0.00 0.00 0.00 20 1020.6
20260507191107 68 98 0.0 1.0 0.00 0.00 0.00 20 1020.6
20260507190604 67 182 1.0 2.0 0.00 0.00 0.00 22 1020.7
20260507185601 65 161 3.0 4.0 0.00 0.00 0.00 22 1020.9
20260507185056 65 139 4.0 10.0 0.00 0.00 0.00 23 1020.9
20260507184555 66 114 4.0 7.0 0.00 0.00 0.00 22 1021.1
20260507184052 65 126 4.0 7.0 0.00 0.00 0.00 22 1021.1
20260507183548 64 133 1.0 3.0 0.00 0.00 0.00 23 1021.3
20260507183046 64 134 5.0 10.0 0.00 0.00 0.00 24 1021.5
20260507182542 64 131 3.0 6.0 0.00 0.00 0.00 23 1021.5
20260507182038 65 102 0.0 6.0 0.00 0.00 0.00 23 1021.6
20260507181535 63 27 2.0 8.0 0.00 0.00 0.00 21 1021.6
20260507181031 65 50 0.0 2.0 0.00 0.00 0.00 21 1021.8
20260507180527 65 95 1.0 2.0 0.00 0.00 0.00 21 1021.7
20260507180025 65 106 3.0 4.0 0.00 0.00 0.00 22 1021.8
20260507175521 64 256 0.0 0.0 0.00 0.00 0.00 23 1022.0
20260507175019 61 49 0.0 4.0 0.00 0.00 0.00 26 1022.2
20260507174515 61 82 3.0 7.0 0.00 0.00 0.00 25 1022.1
20260507174013 60 69 0.0 8.0 0.00 0.00 0.00 26 1022.3
20260507173510 59 317 2.0 3.0 0.00 0.00 0.00 26 1022.4
20260507173007 60 335 4.0 9.0 0.00 0.00 0.00 27 1022.5
20260507172503 60 52 5.0 8.0 0.00 0.00 0.00 29 1022.8
20260507172000 60 276 4.0 10.0 0.00 0.00 0.00 29 1022.7
20260507171455 60 82 3.0 4.0 0.00 0.00 0.00 30 1022.9
20260507170953 59 64 1.0 7.0 0.00 0.00 0.00 31 1022.9
20260507170449 60 75 2.0 7.0 0.00 0.00 0.00 31 1023.0
20260507165946 59 59 2.0 6.0 0.00 0.00 0.00 30 1023.0
20260507165442 58 86 4.0 7.0 0.00 0.00 0.00 32 1023.0
20260507164938 57 29 2.0 6.0 0.00 0.00 0.00 35 1023.1
20260507164435 57 20 4.0 6.0 0.00 0.00 0.00 35 1023.2
20260507163932 55 59 1.0 6.0 0.00 0.00 0.00 38 1023.2
20260507163429 55 26 9.0 11.0 0.00 0.00 0.00 38 1023.0
20260507162926 55 51 0.0 6.0 0.00 0.00 0.00 39 1023.4
20260507162421 56 69 5.0 9.0 0.00 0.00 0.00 40 1023.5
20260507161919 55 28 3.0 7.0 0.00 0.00 0.00 40 1023.5
20260507161415 54 22 3.0 9.0 0.00 0.00 0.00 40 1023.7
20260507160912 54 358 5.0 7.0 0.00 0.00 0.00 42 1023.6
20260507160408 53 54 1.0 6.0 0.00 0.00 0.00 44 1023.6
20260507155904 52 40 4.0 7.0 0.00 0.00 0.00 44 1023.6
20260507155400 53 10 4.0 7.0 0.00 0.00 0.00 45 1023.6
20260507154857 51 35 4.0 9.0 0.00 0.00 0.00 46 1023.7
20260507154354 51 28 3.0 10.0 0.00 0.00 0.00 48 1023.9
20260507153851 51 39 5.0 8.0 0.00 0.00 0.00 50 1023.7
20260507153604 50 68 3.0 4.0 0.00 0.00 0.00 50 1023.9
20260507153347 50 68 3.0 4.0 0.00 0.00 0.00 50 1023.9
20260507153150 50 31 6.0 8.0 0.00 0.00 0.00 52 1023.9
20260507152844 50 31 6.0 8.0 0.00 0.00 0.00 52 1023.9
20260507152428 50 43 5.0 8.0 0.00 0.00 0.00 55 1024.1
20260507152340 50 72 4.0 6.0 0.00 0.00 0.00 52 1024.2
20260507151836 50 43 5.0 8.0 0.00 0.00 0.00 55 1024.1
20260507151333 49 16 3.0 7.0 0.00 0.00 0.00 55 1023.8
20260507150830 49 30 6.0 8.0 0.00 0.00 0.00 55 1024.1
20260507150326 48 51 2.0 8.0 0.00 0.00 0.00 57 1024.1
20260507145822 48 316 6.0 9.0 0.00 0.00 0.00 56 1023.9
20260507145319 48 353 5.0 9.0 0.00 0.00 0.00 58 1024.2
20260507144816 48 303 4.0 9.0 0.00 0.00 0.00 58 1024.1
20260507144313 48 359 8.0 10.0 0.00 0.00 0.00 57 1024.1
20260507143810 47 22 4.0 9.0 0.00 0.00 0.00 59 1024.4
20260507143307 47 6 6.0 7.0 0.00 0.00 0.00 59 1024.5
20260507142803 47 294 6.0 8.0 0.00 0.00 0.00 61 1024.7
20260507142300 46 302 2.0 7.0 0.00 0.00 0.00 62 1024.4
20260507141756 45 15 3.0 7.0 0.00 0.00 0.00 64 1024.5
20260507141254 45 15 4.0 9.0 0.00 0.00 0.00 64 1024.4
20260507140749 44 344 5.0 9.0 0.00 0.00 0.00 65 1024.7
20260507140247 44 34 3.0 7.0 0.00 0.00 0.00 65 1024.5
20260507135744 44 352 4.0 8.0 0.00 0.00 0.00 68 1024.7
20260507135241 44 345 4.0 8.0 0.00 0.00 0.00 68 1024.4
20260507134737 43 35 8.0 10.0 0.00 0.00 0.00 69 1024.5
20260507134234 43 30 5.0 9.0 0.00 0.00 0.00 69 1024.7
20260507133730 43 12 4.0 9.0 0.00 0.00 0.00 69 1024.7
20260507133227 43 23 6.0 8.0 0.00 0.00 0.00 69 1024.3
20260507132724 43 19 5.0 10.0 0.00 0.00 0.00 69 1024.3
20260507132221 43 19 6.0 9.0 0.00 0.00 0.00 69 1024.1
20260507131717 43 3 5.0 10.0 0.00 0.00 0.00 70 1024.3
20260507131215 43 21 3.0 6.0 0.00 0.00 0.00 70 1024.5
20260507130712 42 304 4.0 7.0 0.00 0.00 0.00 69 1024.4
20260507130210 42 0 3.0 7.0 0.00 0.00 0.00 70 1024.3
20260507125708 41 21 4.0 8.0 0.00 0.00 0.00 71 1024.4
20260507125205 41 39 5.0 7.0 0.00 0.00 0.00 71 1024.2
20260507124701 40 8 4.0 6.0 0.00 0.00 0.00 71 1024.2
20260507124159 40 5 1.0 2.0 0.00 0.00 0.00 71 1024.3
20260507123657 39 354 5.0 7.0 0.00 0.00 0.00 72 1024.3
20260507123154 38 330 3.0 4.0 0.00 0.00 0.00 73 1024.3
20260507122649 38 30 2.0 4.0 0.00 0.00 0.00 74 1024.1
20260507122145 37 350 1.0 2.0 0.00 0.00 0.00 74 1023.8
20260507121641 37 26 2.0 2.0 0.00 0.00 0.00 74 1023.8
20260507121137 38 12 2.0 6.0 0.00 0.00 0.00 74 1024.1
20260507120634 38 15 4.0 4.0 0.00 0.00 0.00 72 1023.7
20260507120130 39 5 3.0 3.0 0.00 0.00 0.00 72 1023.9
20260507115627 39 39 2.0 3.0 0.00 0.00 0.00 71 1023.9
20260507115122 40 16 4.0 6.0 0.00 0.00 0.00 71 1023.8
20260507114619 39 54 3.0 4.0 0.00 0.00 0.00 71 1023.7
20260507114116 39 284 3.0 6.0 0.00 0.00 0.00 71 1023.8
20260507113613 39 38 2.0 3.0 0.00 0.00 0.00 70 1023.8
20260507113110 40 351 2.0 3.0 0.00 0.00 0.00 69 1023.7
20260507112608 40 295 4.0 6.0 0.00 0.00 0.00 69 1023.8
20260507112104 40 309 5.0 7.0 0.00 0.00 0.00 69 1023.5
20260507111602 40 311 4.0 6.0 0.00 0.00 0.00 69 1023.9
20260507111058 40 320 2.0 4.0 0.00 0.00 0.00 69 1023.9
20260507110554 40 333 2.0 3.0 0.00 0.00 0.00 69 1023.8
20260507110051 40 288 3.0 4.0 0.00 0.00 0.00 68 1023.7
20260507105548 40 32 0.0 1.0 0.00 0.00 0.00 66 1023.7
20260507105044 41 91 1.0 3.0 0.00 0.00 0.00 66 1023.8
20260507104542 42 280 2.0 4.0 0.00 0.00 0.00 65 1023.6
20260507104038 42 297 3.0 11.0 0.00 0.00 0.00 64 1023.7
20260507103534 42 323 6.0 8.0 0.00 0.00 0.00 62 1023.6
20260507103031 42 301 5.0 9.0 0.00 0.00 0.00 61 1023.5
20260507102527 42 274 6.0 8.0 0.00 0.00 0.00 61 1023.5
20260507102023 42 321 6.0 9.0 0.00 0.00 0.00 61 1023.5
20260507101519 42 306 3.0 7.0 0.00 0.00 0.00 61 1023.6
20260507101016 42 308 4.0 7.0 0.00 0.00 0.00 60 1023.4
20260507100513 42 343 7.0 9.0 0.00 0.00 0.00 58 1023.5
20260507100011 42 293 7.0 9.0 0.00 0.00 0.00 58 1023.4
20260507095509 42 308 7.0 9.0 0.00 0.00 0.00 57 1023.5
20260507095005 42 317 8.0 10.0 0.00 0.00 0.00 55 1023.6
20260507094501 42 309 6.0 10.0 0.00 0.00 0.00 52 1023.4
20260507093959 42 312 6.0 9.0 0.00 0.00 0.00 48 1023.5
20260507093456 42 318 6.0 9.0 0.00 0.00 0.00 41 1023.5
20260507092954 43 317 5.0 6.0 0.00 0.00 0.00 45 1023.4
20260507092450 42 327 4.0 7.0 0.00 0.00 0.00 47 1023.4
20260507091947 42 11 0.0 4.0 0.00 0.00 0.00 45 1023.6
20260507091444 42 310 1.0 1.0 0.00 0.00 0.00 41 1023.6
20260507090940 42 315 0.0 2.0 0.00 0.00 0.00 39 1023.6
20260507090436 42 326 2.0 3.0 0.00 0.00 0.00 40 1023.4
20260507085932 44 26 4.0 6.0 0.00 0.00 0.00 38 1023.5
20260507085430 44 18 0.0 6.0 0.00 0.00 0.00 35 1023.5
20260507084927 45 346 3.0 6.0 0.00 0.00 0.00 34 1023.4
20260507084423 45 287 4.0 6.0 0.00 0.00 0.00 34 1023.4
20260507083915 46 318 5.0 9.0 0.00 0.00 0.00 34 1023.1
20260507083411 45 232 4.0 8.0 0.00 0.00 0.00 34 1023.2
20260507082907 45 350 3.0 7.0 0.00 0.00 0.00 35 1023.2
20260507082404 45 299 4.0 7.0 0.00 0.00 0.00 35 1022.9
20260507081901 45 326 2.0 3.0 0.00 0.00 0.00 34 1023.0
20260507081357 45 309 4.0 6.0 0.00 0.00 0.00 34 1023.2
20260507080854 44 307 3.0 7.0 0.00 0.00 0.00 36 1023.0
20260507080350 44 3 0.0 6.0 0.00 0.00 0.00 37 1023.2
20260507075845 43 41 4.0 7.0 0.00 0.00 0.00 37 1023.2
20260507075341 42 23 0.0 1.0 0.00 0.00 0.00 40 1023.0
20260507074838 42 75 0.0 1.0 0.00 0.00 0.00 40 1023.0
20260507074335 43 75 0.0 0.0 0.00 0.00 0.00 40 1022.9
20260507073832 44 355 0.0 0.0 0.00 0.00 0.00 38 1022.7
20260507073329 44 344 0.0 4.0 0.00 0.00 0.00 38 1022.8
20260507072827 44 299 2.0 7.0 0.00 0.00 0.00 38 1022.7
20260507072324 45 288 3.0 7.0 0.00 0.00 0.00 37 1022.7
20260507071821 44 318 3.0 3.0 0.00 0.00 0.00 37 1022.7
20260507071318 45 278 3.0 4.0 0.00 0.00 0.00 36 1022.7
20260507070814 45 283 4.0 7.0 0.00 0.00 0.00 36 1022.4
20260507070312 45 294 6.0 8.0 0.00 0.00 0.00 36 1022.5
20260507065808 44 290 5.0 7.0 0.00 0.00 0.00 37 1022.5
20260507065306 44 251 5.0 8.0 0.00 0.00 0.00 38 1022.5
20260507064802 44 256 6.0 8.0 0.00 0.00 0.00 39 1022.3
20260507064301 44 290 4.0 8.0 0.00 0.00 0.00 39 1022.5
20260507063758 44 285 6.0 8.0 0.00 0.00 0.00 39 1022.3
20260507063255 46 278 6.0 8.0 0.00 0.00 0.00 36 1022.3
20260507062751 46 288 6.0 8.0 0.00 0.00 0.00 36 1022.5
20260507062249 46 284 4.0 7.0 0.00 0.00 0.00 35 1022.7
20260507061747 46 300 5.0 6.0 0.00 0.00 0.00 36 1022.5
20260507061244 46 281 3.0 8.0 0.00 0.00 0.00 36 1022.4
20260507060743 46 316 4.0 8.0 0.00 0.00 0.00 36 1022.4
20260507060239 46 305 4.0 7.0 0.00 0.00 0.00 38 1022.4
20260507055736 46 291 4.0 7.0 0.00 0.00 0.00 38 1022.4
20260507055231 48 302 2.0 4.0 0.00 0.00 0.00 35 1022.4
20260507054727 49 317 2.0 6.0 0.00 0.00 0.00 32 1022.3